QPF
0.01 0.01 0.02 0.03 0.04 0.04 0.05 0.06 0.05 0.04 0.04 0.06 0.05 0.05 0.05 0.05 0.03 0.02 0.01 0.01 0.01 0.01 0.00 0.01 0.00 0.00 0.00 0.00 0.01 0.01 0.01 0.01 0.01 0.01 0.01 0.01 0.01 0.01 0.01 0.01 0.01 0.00 0.00 0.00
0.01 0.01 0.01 0.02 0.02 0.03 0.03 0.04 0.05 0.05 0.06 0.06 0.07 0.05 0.05 0.05 0.06 0.04 0.02 0.01 0.01 0.01 0.01 0.00 0.00 0.00 0.00 0.00 0.00 0.01 0.01 0.01 0.01 0.02 0.02 0.02 0.02 0.02 0.01 0.01 0.01 0.01 0.00 0.00
0.01 0.01 0.02 0.05 0.06 0.05 0.05 0.05 0.05 0.06 0.07 0.05 0.06 0.07 0.06 0.06 0.06 0.06 0.05 0.03 0.01 0.01 0.01 0.01 0.00 0.00 0.00 0.00 0.00 0.00 0.00 0.01 0.01 0.01 0.01 0.01 0.01 0.01 0.01 0.01 0.01 0.01 0.01 0.01
0.02 0.02 0.05 0.09 0.06 0.06 0.07 0.06 0.05 0.06 0.05 0.05 0.06 0.07 0.06 0.06 0.06 0.07 0.06 0.05 0.03 0.01 0.01 0.01 0.00 0.00 0.00 0.00 0.00 0.00 0.00 0.00 0.00 0.00 0.01 0.01 0.01 0.01 0.01 0.01 0.01 0.01 0.01 0.01
0.03 0.03 0.04 0.06 0.04 0.06 0.08 0.08 0.05 0.04 0.03 0.05 0.05 0.05 0.06 0.05 0.05 0.05 0.06 0.05 0.03 0.02 0.01 0.01 0.00 0.00 0.00 0.00 0.00 0.00 0.00 0.00 0.00 0.00 0.00 0.00 0.01 0.01 0.00 0.00 0.00 0.01 0.01 0.02
0.04 0.04 0.06 0.06 0.03 0.04 0.06 0.08 0.04 0.03 0.03 0.04 0.05 0.05 0.05 0.04 0.04 0.03 0.04 0.04 0.04 0.02 0.01 0.01 0.01 0.00 0.00 0.00 0.00 0.00 0.00 0.00 0.00 0.00 0.00 0.00 0.00 0.00 0.00 0.00 0.00 0.00 0.01 0.01
0.04 0.05 0.05 0.04 0.02 0.03 0.06 0.08 0.03 0.03 0.03 0.04 0.06 0.06 0.04 0.03 0.03 0.02 0.02 0.03 0.03 0.02 0.01 0.01 0.01 0.01 0.00 0.00 0.00 0.00 0.00 0.00 0.00 0.00 0.00 0.00 0.00 0.00 0.00 0.00 0.00 0.01 0.01 0.01
0.03 0.04 0.04 0.03 0.03 0.06 0.07 0.03 0.02 0.02 0.02 0.03 0.04 0.05 0.04 0.03 0.03 0.02 0.02 0.02 0.02 0.02 0.01 0.01 0.00 0.01 0.00 0.00 0.00 0.00 0.00 0.00 0.00 0.00 0.00 0.00 0.00 0.00 0.00 0.00 0.01 0.01 0.01 0.01
0.03 0.04 0.03 0.03 0.04 0.05 0.03 0.02 0.01 0.01 0.01 0.01 0.02 0.04 0.04 0.04 0.03 0.02 0.02 0.02 0.02 0.02 0.02 0.01 0.00 0.00 0.00 0.00 0.00 0.00 0.00 0.00 0.00 0.00 0.00 0.00 0.00 0.00 0.00 0.00 0.01 0.01 0.01 0.01
0.01 0.02 0.02 0.02 0.02 0.03 0.02 0.02 0.01 0.01 0.01 0.01 0.01 0.02 0.03 0.04 0.03 0.03 0.02 0.01 0.01 0.02 0.02 0.01 0.00 0.00 0.00 0.00 0.00 0.00 0.00 0.00 0.00 0.01 0.00 0.00 0.00 0.00 0.00 0.00 0.01 0.01 0.00 0.00
0.01 0.01 0.01 0.01 0.02 0.03 0.02 0.02 0.01 0.01 0.01 0.01 0.01 0.01 0.02 0.03 0.03 0.03 0.02 0.02 0.01 0.01 0.03 0.02 0.01 0.00 0.00 0.00 0.00 0.00 0.00 0.00 0.01 0.01 0.00 0.01 0.01 0.00 0.00 0.00 0.00 0.00 0.00 0.00
0.01 0.00 0.01 0.00 0.01 0.02 0.03 0.03 0.02 0.01 0.00 0.01 0.00 0.01 0.01 0.01 0.02 0.02 0.02 0.02 0.01 0.01 0.01 0.02 0.02 0.01 0.00 0.00 0.00 0.00 0.01 0.01 0.01 0.01 0.00 0.01 0.01 0.00 0.01 0.01 0.00 0.00 0.00 0.01
0.01 0.00 0.00 0.00 0.00 0.01 0.02 0.03 0.02 0.01 0.00 0.00 0.00 0.00 0.00 0.01 0.01 0.01 0.02 0.02 0.01 0.01 0.00 0.01 0.01 0.01 0.01 0.00 0.00 0.01 0.01 0.01 0.01 0.01 0.01 0.00 0.00 0.00 0.00 0.01 0.01 0.01 0.01 0.01
0.00 0.00 0.00 0.00 0.00 0.00 0.01 0.01 0.02 0.01 0.01 0.00 0.00 0.00 0.00 0.00 0.01 0.01 0.01 0.01 0.01 0.01 0.00 0.01 0.01 0.01 0.01 0.00 0.00 0.01 0.01 0.01 0.01 0.01 0.01 0.00 0.00 0.00 0.00 0.00 0.00 0.01 0.01 0.01
0.00 0.00 0.01 0.00 0.00 0.00 0.01 0.01 0.01 0.01 0.01 0.00 0.00 0.00 0.00 0.00 0.01 0.01 0.01 0.01 0.01 0.01 0.00 0.00 0.00 0.00 0.00 0.00 0.00 0.01 0.02 0.02 0.02 0.02 0.01 0.00 0.00 0.00 0.00 0.00 0.00 0.00 0.01 0.01
0.01 0.00 0.00 0.00 0.01 0.01 0.01 0.01 0.01 0.01 0.01 0.01 0.00 0.00 0.00 0.00 0.00 0.01 0.00 0.01 0.01 0.01 0.00 0.00 0.00 0.00 0.00 0.00 0.00 0.01 0.01 0.02 0.02 0.02 0.02 0.01 0.00 0.00 0.00 0.00 0.00 0.00 0.00 0.00
0.02 0.01 0.01 0.01 0.01 0.01 0.01 0.01 0.01 0.01 0.01 0.01 0.01 0.01 0.01 0.01 0.00 0.01 0.01 0.01 0.01 0.01 0.01 0.01 0.00 0.00 0.00 0.00 0.00 0.01 0.01 0.02 0.03 0.03 0.02 0.01 0.00 0.00 0.00 0.00 0.00 0.00 0.00 0.00
0.01 0.01 0.01 0.01 0.02 0.02 0.01 0.01 0.02 0.02 0.02 0.01 0.01 0.01 0.01 0.01 0.01 0.01 0.01 0.01 0.01 0.01 0.01 0.01 0.01 0.01 0.01 0.01 0.01 0.01 0.01 0.02 0.02 0.03 0.03 0.01 0.01 0.00 0.00 0.00 0.00 0.00 0.00 0.01
0.02 0.02 0.02 0.02 0.02 0.02 0.02 0.02 0.02 0.02 0.01 0.01 0.01 0.01 0.01 0.01 0.01 0.01 0.01 0.01 0.01 0.01 0.01 0.00 0.01 0.01 0.01 0.01 0.01 0.01 0.01 0.02 0.02 0.02 0.02 0.02 0.01 0.01 0.01 0.01 0.01 0.01 0.01 0.01
0.02 0.03 0.03 0.03 0.02 0.02 0.02 0.02 0.02 0.01 0.01 0.01 0.01 0.01 0.00 0.00 0.00 0.00 0.01 0.01 0.01 0.01 0.01 0.02 0.02 0.01 0.01 0.01 0.02 0.02 0.02 0.03 0.03 0.03 0.03 0.02 0.02 0.02 0.01 0.01 0.01 0.01 0.01 0.01
0.02 0.02 0.02 0.02 0.01 0.01 0.01 0.01 0.01 0.01 0.01 0.01 0.01 0.01 0.01 0.01 0.01 0.01 0.01 0.02 0.02 0.01 0.02 0.02 0.02 0.02 0.01 0.02 0.02 0.02 0.02 0.02 0.02 0.02 0.02 0.01 0.01 0.01 0.01 0.00 0.01 0.01 0.01 0.00
0.02 0.02 0.02 0.01 0.01 0.01 0.01 0.01 0.01 0.01 0.01 0.01 0.01 0.02 0.01 0.01 0.01 0.01 0.02 0.03 0.03 0.03 0.03 0.02 0.01 0.01 0.02 0.02 0.01 0.01 0.01 0.02 0.02 0.02 0.01 0.01 0.00 0.00 0.00 0.01 0.01 0.01 0.01 0.01
0.02 0.02 0.02 0.02 0.02 0.02 0.01 0.01 0.01 0.01 0.01 0.01 0.01 0.02 0.02 0.02 0.02 0.02 0.03 0.03 0.03 0.03 0.03 0.03 0.03 0.02 0.02 0.02 0.02 0.01 0.02 0.02 0.02 0.02 0.02 0.01 0.01 0.01 0.01 0.01 0.01 0.01 0.01 0.01
0.02 0.02 0.02 0.02 0.02 0.02 0.02 0.01 0.02 0.02 0.02 0.02 0.02 0.02 0.02 0.03 0.03 0.03 0.04 0.04 0.05 0.05 0.04 0.04 0.04 0.03 0.02 0.02 0.02 0.02 0.02 0.02 0.03 0.03 0.03 0.02 0.02 0.02 0.02 0.02 0.02 0.02 0.03 0.03
0.02 0.02 0.02 0.02 0.03 0.03 0.02 0.02 0.02 0.03 0.02 0.02 0.03 0.03 0.02 0.03 0.04 0.06 0.06 0.06 0.06 0.06 0.05 0.05 0.04 0.03 0.03 0.02 0.02 0.02 0.02 0.03 0.03 0.03 0.03 0.03 0.03 0.03 0.03 0.03 0.03 0.04 0.04 0.04
0.02 0.02 0.02 0.03 0.04 0.04 0.04 0.04 0.04 0.04 0.03 0.03 0.03 0.03 0.03 0.04 0.05 0.07 0.08 0.09 0.08 0.07 0.06 0.05 0.04 0.04 0.03 0.03 0.03 0.03 0.03 0.04 0.04 0.04 0.04 0.04 0.04 0.04 0.04 0.04 0.05 0.04 0.04 0.04
0.02 0.02 0.02 0.03 0.03 0.04 0.04 0.04 0.05 0.04 0.04 0.04 0.04 0.04 0.05 0.05 0.06 0.07 0.08 0.09 0.09 0.07 0.06 0.06 0.05 0.04 0.04 0.04 0.03 0.03 0.03 0.03 0.04 0.04 0.04 0.04 0.04 0.04 0.04 0.04 0.04 0.04 0.03 0.02
MSLP
1010.32 1009.79 1009.45 1009.23 1009.06 1008.86 1008.56 1008.12 1007.53 1006.81 1006.01 1005.17 1004.37 1003.64 1002.99 1002.40 1001.83 1001.24 1000.55 999.75 998.83 997.80 996.75 995.76 994.92 994.33 994.06 994.14 994.57 995.30 996.25 997.34 998.48 999.61 1000.66 1001.62 1002.49 1003.30 1004.08 1004.84 1005.62 1006.41 1007.21 1007.99
1010.73 1010.36 1010.14 1010.00 1009.88 1009.73 1009.48 1009.10 1008.59 1007.97 1007.28 1006.57 1005.87 1005.21 1004.59 1003.98 1003.33 1002.59 1001.74 1000.73 999.58 998.34 997.08 995.90 994.90 994.17 993.77 993.75 994.09 994.74 995.63 996.67 997.77 998.86 999.90 1000.86 1001.73 1002.55 1003.35 1004.13 1004.92 1005.73 1006.55 1007.35
1011.33 1011.08 1010.93 1010.84 1010.75 1010.60 1010.35 1010.00 1009.53 1008.97 1008.35 1007.72 1007.09 1006.47 1005.86 1005.21 1004.49 1003.64 1002.64 1001.47 1000.15 998.74 997.33 996.01 994.88 994.04 993.55 993.44 993.70 994.27 995.09 996.07 997.12 998.19 999.21 1000.16 1001.04 1001.88 1002.69 1003.49 1004.31 1005.15 1005.99 1006.82
1012.01 1011.82 1011.69 1011.59 1011.46 1011.27 1010.99 1010.61 1010.14 1009.59 1009.02 1008.43 1007.84 1007.25 1006.65 1005.98 1005.20 1004.28 1003.18 1001.90 1000.47 998.95 997.44 996.03 994.82 993.90 993.33 993.16 993.35 993.86 994.62 995.54 996.56 997.60 998.61 999.56 1000.46 1001.31 1002.15 1002.98 1003.83 1004.69 1005.56 1006.42
1012.67 1012.45 1012.27 1012.10 1011.88 1011.61 1011.25 1010.81 1010.30 1009.75 1009.19 1008.63 1008.08 1007.52 1006.93 1006.27 1005.47 1004.52 1003.37 1002.04 1000.56 998.99 997.42 995.96 994.70 993.73 993.12 992.89 993.03 993.48 994.20 995.09 996.08 997.11 998.12 999.09 1000.02 1000.90 1001.77 1002.63 1003.51 1004.40 1005.29 1006.18
1013.19 1012.88 1012.59 1012.30 1011.96 1011.57 1011.11 1010.59 1010.04 1009.48 1008.92 1008.39 1007.87 1007.36 1006.80 1006.17 1005.39 1004.45 1003.30 1001.96 1000.47 998.89 997.31 995.83 994.55 993.55 992.91 992.64 992.74 993.16 993.84 994.72 995.71 996.74 997.78 998.78 999.74 1000.67 1001.57 1002.46 1003.36 1004.26 1005.17 1006.07
1013.47 1013.04 1012.62 1012.18 1011.71 1011.19 1010.63 1010.05 1009.45 1008.88 1008.34 1007.84 1007.37 1006.92 1006.42 1005.84 1005.11 1004.20 1003.09 1001.78 1000.31 998.74 997.17 995.70 994.41 993.40 992.74 992.44 992.52 992.92 993.59 994.46 995.46 996.52 997.59 998.64 999.65 1000.62 1001.55 1002.47 1003.37 1004.28 1005.19 1006.08
1013.47 1012.92 1012.37 1011.80 1011.20 1010.58 1009.95 1009.31 1008.69 1008.12 1007.61 1007.17 1006.77 1006.38 1005.95 1005.44 1004.78 1003.93 1002.88 1001.61 1000.18 998.65 997.10 995.63 994.35 993.34 992.66 992.35 992.40 992.79 993.46 994.35 995.37 996.47 997.59 998.69 999.75 1000.75 1001.71 1002.64 1003.54 1004.44 1005.32 1006.20
1013.17 1012.52 1011.87 1011.21 1010.54 1009.85 1009.17 1008.52 1007.91 1007.38 1006.92 1006.54 1006.21 1005.90 1005.55 1005.11 1004.53 1003.75 1002.75 1001.54 1000.16 998.66 997.15 995.70 994.43 993.41 992.72 992.40 992.44 992.82 993.50 994.40 995.46 996.60 997.77 998.92 1000.02 1001.05 1002.03 1002.96 1003.85 1004.71 1005.57 1006.42
1012.59 1011.90 1011.21 1010.51 1009.80 1009.11 1008.44 1007.81 1007.24 1006.76 1006.36 1006.05 1005.80 1005.56 1005.29 1004.92 1004.40 1003.69 1002.75 1001.60 1000.27 998.82 997.33 995.91 994.65 993.64 992.94 992.61 992.65 993.03 993.71 994.63 995.72 996.90 998.11 999.30 1000.43 1001.49 1002.48 1003.40 1004.27 1005.11 1005.93 1006.75
1011.79 1011.11 1010.44 1009.76 1009.09 1008.43 1007.81 1007.23 1006.73 1006.31 1005.99 1005.74 1005.56 1005.39 1005.17 1004.86 1004.40 1003.74 1002.86 1001.77 1000.49 999.09 997.65 996.27 995.03 994.03 993.34 993.00 993.04 993.42 994.10 995.03 996.14 997.35 998.59 999.81 1000.97 1002.05 1003.04 1003.96 1004.81 1005.62 1006.41 1007.20
1010.86 1010.25 1009.65 1009.05 1008.45 1007.87 1007.33 1006.83 1006.40 1006.05 1005.79 1005.60 1005.46 1005.33 1005.15 1004.88 1004.46 1003.84 1003.02 1001.98 1000.76 999.43 998.04 996.71 995.51 994.55 993.87 993.55 993.58 993.96 994.65 995.58 996.70 997.92 999.19 1000.43 1001.61 1002.71 1003.70 1004.62 1005.46 1006.26 1007.03 1007.81
1009.92 1009.42 1008.92 1008.43 1007.94 1007.46 1007.01 1006.59 1006.23 1005.94 1005.72 1005.56 1005.44 1005.33 1005.17 1004.91 1004.51 1003.93 1003.15 1002.18 1001.03 999.76 998.46 997.20 996.07 995.15 994.51 994.21 994.25 994.63 995.32 996.25 997.37 998.59 999.87 1001.12 1002.32 1003.43 1004.45 1005.37 1006.23 1007.03 1007.80 1008.58
1009.09 1008.71 1008.35 1007.98 1007.60 1007.23 1006.86 1006.52 1006.22 1005.96 1005.76 1005.60 1005.48 1005.35 1005.17 1004.91 1004.52 1003.96 1003.23 1002.31 1001.24 1000.07 998.86 997.69 996.64 995.80 995.22 994.95 995.02 995.41 996.09 997.01 998.12 999.34 1000.62 1001.88 1003.09 1004.23 1005.27 1006.22 1007.10 1007.93 1008.72 1009.52
1008.47 1008.23 1007.99 1007.74 1007.47 1007.19 1006.90 1006.61 1006.34 1006.10 1005.89 1005.71 1005.55 1005.38 1005.17 1004.88 1004.48 1003.94 1003.24 1002.39 1001.40 1000.33 999.23 998.17 997.23 996.48 995.97 995.76 995.86 996.26 996.94 997.85 998.94 1000.15 1001.42 1002.69 1003.92 1005.08 1006.16 1007.15 1008.07 1008.94 1009.77 1010.60
1008.14 1008.02 1007.90 1007.75 1007.57 1007.36 1007.12 1006.87 1006.61 1006.36 1006.12 1005.90 1005.68 1005.46 1005.19 1004.86 1004.44 1003.90 1003.23 1002.44 1001.54 1000.57 999.59 998.66 997.84 997.20 996.78 996.63 996.77 997.19 997.87 998.77 999.84 1001.03 1002.29 1003.56 1004.80 1005.98 1007.10 1008.14 1009.11 1010.03 1010.91 1011.77
1008.12 1008.10 1008.07 1007.99 1007.88 1007.72 1007.51 1007.27 1007.01 1006.73 1006.46 1006.18 1005.90 1005.61 1005.28 1004.91 1004.45 1003.91 1003.26 1002.52 1001.71 1000.85 999.99 999.19 998.50 997.97 997.64 997.57 997.76 998.19 998.87 999.76 1000.81 1001.97 1003.21 1004.47 1005.71 1006.92 1008.07 1009.15 1010.18 1011.15 1012.08 1012.97
1008.36 1008.41 1008.43 1008.41 1008.33 1008.20 1008.01 1007.77 1007.49 1007.19 1006.87 1006.55 1006.21 1005.86 1005.47 1005.04 1004.56 1004.01 1003.38 1002.69 1001.95 1001.19 1000.45 999.78 999.21 998.80 998.58 998.58 998.81 999.28 999.95 1000.82 1001.83 1002.97 1004.17 1005.41 1006.65 1007.86 1009.03 1010.15 1011.22 1012.24 1013.21 1014.14
1008.73 1008.81 1008.86 1008.85 1008.79 1008.67 1008.48 1008.24 1007.96 1007.64 1007.30 1006.94 1006.56 1006.17 1005.74 1005.28 1004.77 1004.22 1003.61 1002.96 1002.30 1001.63 1001.00 1000.45 1000.00 999.70 999.58 999.66 999.94 1000.42 1001.10 1001.94 1002.92 1004.01 1005.17 1006.37 1007.58 1008.78 1009.96 1011.10 1012.19 1013.24 1014.24 1015.19
1009.06 1009.13 1009.17 1009.16 1009.09 1008.96 1008.78 1008.54 1008.27 1007.96 1007.62 1007.26 1006.87 1006.46 1006.03 1005.55 1005.05 1004.50 1003.93 1003.33 1002.74 1002.16 1001.63 1001.19 1000.86 1000.67 1000.63 1000.78 1001.11 1001.62 1002.28 1003.10 1004.04 1005.07 1006.17 1007.32 1008.48 1009.65 1010.81 1011.95 1013.05 1014.11 1015.13 1016.10
1009.16 1009.19 1009.19 1009.15 1009.05 1008.92 1008.74 1008.52 1008.27 1008.00 1007.70 1007.38 1007.03 1006.65 1006.24 1005.79 1005.32 1004.81 1004.28 1003.75 1003.23 1002.74 1002.32 1001.98 1001.75 1001.66 1001.72 1001.93 1002.30 1002.83 1003.49 1004.27 1005.16 1006.13 1007.17 1008.25 1009.35 1010.47 1011.58 1012.69 1013.78 1014.84 1015.87 1016.84
1008.90 1008.86 1008.79 1008.69 1008.56 1008.42 1008.25 1008.07 1007.87 1007.67 1007.44 1007.20 1006.93 1006.63 1006.29 1005.92 1005.51 1005.08 1004.63 1004.17 1003.74 1003.35 1003.02 1002.79 1002.67 1002.67 1002.80 1003.08 1003.49 1004.03 1004.68 1005.44 1006.28 1007.18 1008.14 1009.14 1010.17 1011.22 1012.28 1013.35 1014.41 1015.45 1016.47 1017.44
1008.21 1008.06 1007.90 1007.74 1007.57 1007.41 1007.27 1007.14 1007.03 1006.92 1006.81 1006.69 1006.54 1006.37 1006.15 1005.89 1005.59 1005.26 1004.91 1004.56 1004.23 1003.95 1003.73 1003.60 1003.58 1003.67 1003.88 1004.21 1004.66 1005.21 1005.86 1006.59 1007.37 1008.22 1009.10 1010.03 1010.98 1011.95 1012.95 1013.95 1014.97 1015.98 1016.97 1017.94
1007.09 1006.82 1006.57 1006.33 1006.13 1005.97 1005.87 1005.81 1005.79 1005.81 1005.84 1005.87 1005.89 1005.88 1005.82 1005.71 1005.56 1005.37 1005.15 1004.93 1004.72 1004.55 1004.45 1004.42 1004.49 1004.67 1004.95 1005.33 1005.81 1006.38 1007.02 1007.72 1008.47 1009.25 1010.07 1010.92 1011.79 1012.69 1013.61 1014.56 1015.52 1016.49 1017.46 1018.41
1005.65 1005.27 1004.92 1004.62 1004.39 1004.24 1004.19 1004.21 1004.31 1004.47 1004.66 1004.87 1005.07 1005.25 1005.37 1005.45 1005.47 1005.44 1005.37 1005.29 1005.22 1005.18 1005.19 1005.27 1005.43 1005.68 1006.02 1006.46 1006.97 1007.55 1008.18 1008.86 1009.57 1010.31 1011.07 1011.85 1012.65 1013.48 1014.34 1015.23 1016.14 1017.06 1017.98 1018.90
1004.06 1003.58 1003.16 1002.81 1002.57 1002.45 1002.45 1002.57 1002.79 1003.09 1003.45 1003.84 1004.24 1004.60 1004.93 1005.19 1005.39 1005.54 1005.64 1005.71 1005.78 1005.87 1005.99 1006.17 1006.42 1006.74 1007.14 1007.62 1008.15 1008.74 1009.37 1010.03 1010.71 1011.40 1012.12 1012.85 1013.60 1014.37 1015.17 1015.99 1016.85 1017.71 1018.59 1019.46
1002.53 1001.98 1001.51 1001.15 1000.92 1000.84 1000.90 1001.11 1001.45 1001.89 1002.41 1002.97 1003.54 1004.09 1004.60 1005.05 1005.44 1005.76 1006.02 1006.25 1006.45 1006.66 1006.89 1007.17 1007.49 1007.88 1008.32 1008.82 1009.38 1009.97 1010.59 1011.23 1011.89 1012.56 1013.23 1013.92 1014.63 1015.35 1016.10 1016.87 1017.67 1018.48 1019.30 1020.11
Thickness
5360 5372 5376 5380 5389 5395 5398 5406 5416 5437 5451 5462 5469 5476 5485 5497 5511 5524 5537 5549 5560 5570 5580 5591 5602 5611 5620 5627 5633 5638 5641 5644 5648 5650 5651 5650 5650 5650 5649 5647 5645 5642 5639 5637
5357 5376 5378 5383 5392 5397 5402 5407 5416 5429 5441 5452 5458 5466 5474 5484 5496 5509 5521 5534 5546 5558 5568 5578 5588 5598 5608 5616 5622 5628 5632 5636 5640 5641 5642 5643 5645 5644 5643 5642 5640 5637 5635 5632
5348 5365 5371 5374 5385 5392 5397 5404 5410 5418 5430 5440 5448 5456 5463 5473 5484 5495 5507 5519 5532 5543 5556 5566 5577 5587 5596 5604 5612 5618 5623 5627 5630 5632 5634 5636 5637 5637 5637 5636 5634 5632 5630 5628
5340 5348 5350 5371 5384 5388 5393 5395 5401 5409 5417 5428 5437 5448 5456 5463 5472 5483 5495 5507 5519 5530 5543 5555 5566 5576 5585 5593 5601 5607 5613 5617 5620 5623 5626 5628 5629 5630 5630 5629 5627 5625 5623 5621
5332 5335 5351 5369 5379 5381 5384 5387 5392 5400 5409 5419 5429 5442 5450 5457 5463 5472 5484 5497 5508 5520 5532 5543 5554 5564 5573 5581 5589 5596 5601 5606 5611 5615 5617 5619 5621 5623 5623 5621 5619 5618 5617 5615
5324 5333 5347 5361 5375 5381 5381 5378 5387 5394 5400 5409 5417 5424 5436 5446 5454 5465 5477 5488 5499 5511 5523 5533 5542 5553 5561 5569 5577 5584 5591 5596 5602 5606 5609 5612 5613 5614 5614 5613 5612 5610 5609 5608
5316 5323 5342 5358 5367 5373 5364 5365 5379 5385 5392 5398 5403 5412 5424 5436 5446 5457 5468 5479 5490 5500 5511 5522 5532 5542 5550 5558 5566 5573 5580 5586 5592 5596 5600 5603 5604 5605 5605 5604 5603 5601 5600 5599
5313 5317 5334 5355 5357 5355 5355 5365 5371 5378 5384 5391 5398 5408 5417 5426 5436 5448 5459 5470 5480 5489 5500 5511 5521 5530 5539 5547 5555 5562 5570 5576 5581 5586 5590 5593 5595 5595 5595 5595 5593 5591 5590 5588
5318 5329 5342 5347 5349 5353 5356 5359 5364 5370 5378 5385 5392 5400 5409 5418 5428 5438 5449 5459 5469 5478 5489 5501 5510 5520 5528 5536 5543 5551 5559 5565 5570 5575 5579 5583 5585 5586 5586 5585 5585 5583 5581 5580
5319 5330 5337 5341 5344 5348 5352 5354 5359 5365 5371 5377 5385 5393 5401 5410 5419 5429 5439 5448 5458 5468 5479 5490 5500 5509 5517 5524 5532 5541 5547 5553 5559 5563 5567 5571 5574 5575 5576 5576 5576 5575 5573 5571
5315 5325 5329 5337 5340 5343 5347 5351 5354 5359 5365 5371 5378 5386 5393 5402 5410 5420 5429 5438 5448 5458 5468 5479 5489 5498 5506 5514 5522 5529 5535 5542 5547 5552 5556 5559 5561 5563 5565 5567 5570 5569 5567 5565
5316 5324 5321 5328 5335 5337 5340 5345 5349 5352 5358 5364 5370 5378 5386 5394 5403 5411 5421 5429 5439 5449 5458 5468 5478 5487 5496 5504 5511 5518 5524 5530 5536 5540 5544 5547 5549 5549 5550 5554 5556 5558 5558 5557
5320 5323 5322 5326 5329 5331 5334 5338 5342 5346 5351 5356 5363 5370 5378 5386 5395 5403 5412 5421 5430 5440 5449 5459 5470 5479 5487 5494 5501 5507 5513 5519 5525 5529 5532 5535 5538 5540 5539 5539 5541 5543 5545 5545
5315 5315 5316 5319 5321 5325 5327 5332 5335 5339 5344 5349 5355 5362 5369 5377 5386 5394 5403 5413 5422 5432 5442 5452 5461 5470 5478 5485 5490 5496 5502 5508 5514 5518 5521 5524 5527 5529 5531 5532 5531 5529 5530 5532
5309 5309 5310 5313 5315 5317 5320 5323 5326 5331 5336 5342 5348 5354 5361 5368 5377 5386 5395 5404 5413 5423 5434 5443 5452 5462 5469 5475 5481 5487 5492 5498 5502 5506 5509 5512 5515 5518 5519 5519 5520 5519 5518 5518
5302 5302 5304 5305 5307 5309 5311 5314 5317 5323 5328 5333 5340 5346 5353 5360 5368 5377 5386 5395 5404 5415 5425 5435 5444 5453 5460 5467 5472 5477 5483 5488 5493 5495 5498 5501 5504 5507 5508 5508 5509 5509 5509 5508
5294 5295 5296 5297 5298 5300 5302 5305 5309 5315 5319 5325 5332 5339 5345 5352 5361 5369 5378 5387 5396 5407 5417 5426 5436 5445 5452 5459 5464 5469 5474 5478 5482 5485 5488 5492 5495 5497 5498 5498 5499 5499 5498 5498
5287 5287 5287 5288 5290 5292 5295 5298 5302 5307 5312 5318 5324 5330 5337 5345 5353 5361 5370 5379 5389 5400 5410 5419 5428 5437 5445 5451 5456 5461 5465 5469 5472 5476 5479 5482 5484 5486 5488 5489 5489 5489 5488 5487
5280 5280 5281 5283 5284 5285 5289 5292 5296 5300 5305 5310 5317 5324 5331 5339 5347 5355 5364 5373 5383 5393 5403 5412 5421 5429 5436 5443 5448 5453 5457 5459 5462 5465 5469 5472 5474 5475 5477 5480 5480 5480 5479 5478
5275 5276 5276 5278 5279 5281 5284 5287 5290 5294 5299 5305 5311 5319 5326 5334 5342 5351 5359 5368 5378 5387 5396 5405 5414 5421 5428 5434 5440 5444 5448 5451 5454 5456 5460 5462 5464 5466 5468 5470 5470 5470 5469 5468
5270 5271 5272 5272 5275 5277 5279 5282 5285 5290 5295 5300 5306 5314 5322 5330 5338 5345 5354 5363 5373 5381 5390 5400 5408 5414 5420 5426 5431 5435 5439 5442 5445 5448 5450 5453 5455 5457 5459 5460 5460 5461 5460 5459
5263 5264 5266 5267 5270 5273 5275 5277 5281 5286 5292 5297 5303 5310 5318 5326 5334 5341 5350 5358 5367 5376 5384 5392 5400 5407 5412 5418 5422 5426 5430 5434 5436 5439 5442 5444 5447 5449 5450 5451 5451 5451 5450 5449
5258 5259 5260 5262 5264 5267 5270 5274 5278 5283 5288 5294 5301 5308 5315 5323 5330 5338 5346 5355 5362 5371 5378 5386 5393 5400 5406 5410 5414 5418 5421 5425 5428 5430 5433 5435 5438 5440 5442 5442 5442 5441 5441 5440
5253 5254 5256 5257 5259 5263 5267 5272 5276 5281 5286 5292 5299 5306 5313 5320 5328 5335 5343 5351 5359 5367 5373 5380 5387 5394 5399 5402 5406 5409 5413 5416 5419 5421 5424 5426 5429 5431 5432 5433 5433 5432 5432 5431
5248 5249 5250 5252 5255 5259 5264 5269 5274 5280 5285 5291 5298 5305 5312 5318 5325 5333 5340 5347 5355 5362 5368 5374 5381 5387 5391 5395 5398 5402 5405 5408 5411 5413 5415 5418 5420 5422 5423 5424 5424 5424 5423 5422
5244 5245 5248 5250 5253 5257 5262 5268 5273 5279 5285 5291 5298 5304 5310 5317 5323 5330 5336 5343 5349 5356 5362 5367 5373 5378 5382 5387 5391 5394 5397 5400 5402 5405 5407 5409 5411 5413 5414 5415 5415 5415 5415 5414
5242 5244 5246 5249 5253 5257 5261 5266 5271 5277 5283 5289 5295 5302 5307 5314 5320 5326 5332 5338 5344 5350 5355 5360 5365 5370 5375 5379 5383 5386 5388 5391 5394 5396 5398 5400 5402 5405 5406 5407 5407 5407 5406 5405